Retour au catalogue

FENGYUN 1C DEB

ActifSSO
NORAD 30728·DEBRIS·🇨🇳 China

Lancé May 10, 1999 depuis Taiyuan Satellite Launch Center

Loading…

Prochains Passages (prochaines 24 heures)

TLE

FraisSource: Space-Track

Époque: Sep 14, 2026, 23:14 UTC

1 30728U 99025ASN 26257.96821677  .00000078  00000-0  50427-4 0  9990
2 30728  98.5321 261.3343 0098285 357.8456   2.2287 14.23565942 16168

Suivez FENGYUN 1C DEB en temps réel avec AllMySat

Download on the App Store